This demonstration page uses our WeatherBlox Daily Observations layout. Learn more.

38.88101, -77.10428

Hourly Observations for September 18, 2018

Temp ( °F °C ) Dew Point ( °F °C ) Humidity (%) Winds ( mph kmh ) Pressure ( in mb ) Visibility ( mi km ) Precip ( " mm )
12:08 am 00:08 Cloudy with Thunderstorms 77 25 74 23.3 90 90 SSW 10 17 29.85 1011 10 16.0934 0 0
12:13 am 00:13 Cloudy with Light Thunderstorms 78 25.6 75 23.9 90 90 WSW 8 13 29.85 1011 10 16.0934 0 0.0254
12:18 am 00:18 Cloudy with Heavy Thunderstorms 78 25.6 75 23.9 90 90 WSW 12 19 29.85 1011 2 3.21868 0 0.0254
12:21 am 00:21 Cloudy with Heavy Thunderstorms 78 25.6 75 23.9 90 90 WSW 10 17 29.85 1011 1.5 2.41401 0.06 1.524
12:23 am 00:23 Cloudy with Heavy Thunderstorms 78 25.6 75 23.9 90 90 WSW 13 20 29.85 1011 1 1.60934 0.13 3.302
12:26 am 00:26 Cloudy with Heavy Thunderstorms 77 25 74 23.3 90 90 SW 9 15 29.85 1011 1 1.60934 0.2 5.08
12:31 am 00:31 Cloudy with Heavy Thunderstorms 78 25.6 75 23.9 90 90 WSW 6 9 29.83 1010 0.75 1.207005 0.35 8.89
12:36 am 00:36 Cloudy with Heavy Thunderstorms 77 25 75 23.9 94 94 WSW 5 7 29.83 1010 1 1.60934 0.6 15.24
12:41 am 00:41 Cloudy with Heavy Thunderstorms 77 25 74 23.3 90 90 SW 7 11 29.83 1010 4 6.43736 0.67 17.018
12:52 am 00:52 Cloudy with Light Thunderstorms 77 25 74 23.3 90 90 SSW 9 15 29.84 1010 10 16.0934 0.68 17.272
1:02 am 01:02 Cloudy 77 25 74 23.3 90 90 SSW 6 9 29.83 1010 10 16.0934 0 0.0254
1:18 am 01:18 Cloudy with Light Rain 78 25.6 74 23.3 87 87 S 8 13 29.83 1010 7 11.26538 0 0.0254
1:37 am 01:37 Cloudy with Heavy Rain 78 25.6 74 23.3 87 87 SSW 13 20 29.83 1010 2.5 4.02335 0.05 1.27
1:40 am 01:40 Cloudy with Light Rain 78 25.6 74 23.3 87 87 SW 15 24 29.83 1010 5 8.0467 0.06 1.524
1:52 am 01:52 Cloudy with Light Thunderstorms 78 25.6 74 23.3 87 87 SW 10 17 29.83 1010 10 16.0934 0.06 1.524
2:10 am 02:10 Cloudy with Light Rain 77 25 74 23.3 90 90 S 13 20 29.83 1010 10 16.0934 0.01 0.254
2:52 am 02:52 Cloudy 76 24.4 72 22.2 88 88 S 10 17 29.82 1010 10 16.0934 0.01 0.254
3:36 am 03:36 Cloudy 76 24.4 72 22.2 88 88 SSW 7 11 29.83 1010 10 16.0934 0 0
3:52 am 03:52 Cloudy with Light Rain 75 23.9 72 22.2 90 90 S 6 9 29.81 1010 5 8.0467 0.03 0.762
4:05 am 04:05 Cloudy with Light Rain 75 23.9 72 22.2 90 90 S 5 7 29.8 1009 8 12.87472 0 0.0254
4:29 am 04:29 Cloudy 75 23.9 72 22.2 90 90 SSW 3 6 29.8 1009 10 16.0934 0 0.0254
4:44 am 04:44 Cloudy 75 23.9 72 22.2 90 90 SSW 3 6 29.8 1009 10 16.0934 0 0.0254
4:52 am 04:52 Cloudy 75 23.9 72 22.2 90 90 Calm 29.8 1009 10 16.0934 0 0.0254
5:49 am 05:49 Cloudy 75 24 72 22 89 89 SSE 5 7 29.8 1009 10 16.0934 0 0
5:52 am 05:52 Cloudy 75 23.9 72 22.2 90 90 S 5 7 29.8 1009 10 16.0934 0 0
6:00 am 06:00 Cloudy 75 23.9 72 22.2 90 90 S 6 9 29.8 1009 10 16.0934 0 0
6:37 am 06:37 Cloudy 76 24.4 73 22.8 91 91 S 7 11 29.8 1009 10 16.0934 0 0
6:52 am 06:52 Cloudy 76 24.4 73 22.8 91 91 S 7 11 29.79 1009 10 16.0934 0 0
7:48 am 07:48 Cloudy 75 24 73 23 94 94 S 9 15 29.8 1009 10 16.0934 0 0.0254
7:52 am 07:52 Cloudy 76 24.4 73 22.8 91 91 S 10 17 29.79 1009 10 16.0934 0 0.0254
8:52 am 08:52 Cloudy 78 25.6 73 22.8 85 85 SSW 9 15 29.78 1009 10 16.0934 0 0.0254
9:52 am 09:52 Cloudy 78 25.6 73 22.8 85 85 SW 8 13 29.78 1008 10 16.0934 0 0.0254
10:52 am 10:52 Cloudy 78 25.6 74 23.3 87 87 SSW 8 13 29.79 1009 10 16.0934 0 0
11:28 am 11:28 Cloudy 80 26.7 74 23.3 82 82 SW 7 11 29.77 1008 10 16.0934 0 0
11:41 am 11:41 Cloudy 79 26.1 74 23.3 85 85 SSW 8 13 29.77 1008 10 16.0934 0 0
11:52 am 11:52 Cloudy 80 26.7 75 23.9 85 85 SW 6 9 29.78 1008 10 16.0934 0 0
12:31 pm 12:31 Cloudy 81 27.2 74 23.3 79 79 VRB 3 6 29.77 1008 10 16.0934 0 0
12:41 pm 12:41 Cloudy 82 27.8 74 23.3 77 77 VRB 3 6 29.77 1008 10 16.0934 0 0
12:52 pm 12:52 Mostly Cloudy 84 28.9 74 23.3 72 72 WNW 8 13 29.76 1008 10 16.0934 0 0
12:57 pm 12:57 Cloudy with Light Rain 81 27.2 74 23.3 79 79 WNW 9 15 29.77 1008 10 16.0934 0 0.0254
1:01 pm 13:01 Cloudy with Light Rain 80 26.7 73 22.8 79 79 NW 15 24 29.77 1008 3 4.82802 0 0.0254
1:11 pm 13:11 Cloudy with Rain 78 25.6 73 22.8 85 85 WNW 9 15 29.77 1008 5 8.0467 0.09 2.286
1:27 pm 13:27 Cloudy with Light Rain 79 26.1 74 23.3 85 85 WNW 8 13 29.77 1008 8 12.87472 0.11 2.794
1:40 pm 13:40 Cloudy with Light Rain 80 26.7 74 23.3 82 82 NNW 7 11 29.77 1008 10 16.0934 0.11 2.794
1:52 pm 13:52 Cloudy 78 25.6 72 22.2 82 82 NW 17 28 29.77 1008 10 16.0934 0.12 3.048
2:28 pm 14:28 Cloudy with Nearby Thunderstorms 80 26.7 72 22.2 76 76 NNW 14 22 29.77 1008 10 16.0934 0 0
2:40 pm 14:40 Mostly Cloudy 80 26.7 71 21.7 74 74 NNW 17 28 29.77 1008 10 16.0934 0 0
2:52 pm 14:52 Mostly Cloudy 78 25.6 70 21.1 76 76 N 17 28 29.78 1008 10 16.0934 0 0
3:52 pm 15:52 Mostly Cloudy 81 27.2 70 21.1 69 69 N 13 20 29.77 1008 10 16.0934 0 0
4:52 pm 16:52 Mostly Cloudy 81 27.2 68 20 65 65 N 10 17 29.78 1008 10 16.0934 0 0
5:52 pm 17:52 Mostly Cloudy 83 28.3 70 21.1 65 65 NNE 3 6 29.79 1009 10 16.0934 0 0
6:52 pm 18:52 Mostly Cloudy 81 27.2 68 20 65 65 N 9 15 29.8 1009 10 16.0934 0 0
7:52 pm 19:52 Mostly Cloudy 81 27.2 68 20 65 65 NW 9 15 29.81 1010 10 16.0934 0 0
8:52 pm 20:52 Clear 78 25.6 67 19.4 69 69 NNW 9 15 29.83 1010 10 16.0934 0 0
9:52 pm 21:52 Mostly Clear 77 25 66 18.9 69 69 NNW 8 13 29.84 1010 10 16.0934 0 0
10:52 pm 22:52 Mostly Clear 77 25 66 18.9 69 69 NW 12 19 29.85 1011 10 16.0934 0 0
11:52 pm 23:52 Mostly Clear 74 23.3 66 18.9 76 76 N 6 9 29.84 1010 10 16.0934 0 0

Powered by AerisWeather